Weather History for Saginaw, MI

Change the Weather History Date:

Sunday, December 19, 2010

  Actual Average Record
Temperature  
Mean Temperature 22 °F 26 °F  
Max Temperature 24 °F 32 °F 50 °F (2002)
Min Temperature 19 °F 20 °F -2 °F (2004)
Degree Days  
Heating Degree Days 44    
Month to date heating degree days  
Since 1 July heating degree days  
Cooling Degree Days 0    
Month to date cooling degree days  
Year to date cooling degree days  
Moisture  
Dew Point 19 °F    
Average Humidity 86    
Maximum Humidity 93    
Minimum Humidity 80    
Precipitation  
Precipitation 0.00 in 0.05 in 0.31 in (2001)
Month to date precipitation 1.18  
Year to date precipitation 30.86  
Snow  
Snow 0.00 in - - ()
Month to date snowfall  
Since 1 July snowfall  
Snow Depth -    
Sea Level Pressure  
Sea Level Pressure 30.03 in    
Wind  
Wind Speed 6 mph (SW)    
Max Wind Speed 8 mph    
Max Gust Speed -    
Visibility 6 miles    
Events Snow    
T = Trace of Precipitation, MM = Missing Value Source: NWS Daily Summary

Daily Weather History Graph

Daily Weather History Graph

Search for Another Location

Airport:

Trip Planner

Search our weather history database for the weather conditions in past years. The results will help you decide how hot, cold, wet, or windy it might be!

Date:

Astronomy

Dec. 19, 2010 Rise Set
Actual Time 8:05 AM EST 5:01 PM EST
Civil Twilight 7:32 AM EST 5:34 PM EST
Nautical Twilight 6:56 AM EST 6:10 PM EST
Astronomical Twilight 6:21 AM EST 6:45 PM EST
Moon 3:32 PM EST (12/19) 6:28 AM EST (12/19)
Length of Visible Light 10h 02m
Length of Day
8h 56m
Waxing Gibbous, 97% of the Moon is Illuminated
Dec 19
Waxing Gibbous
Dec 21
Full
Dec 27
Last Quarter
Jan 4
New
Jan 12
First Quarter

Hourly Weather History & Observations

Time (EST) Temp. Windchill Dew Point Humidity Pressure Visibility Wind Dir Wind Speed Gust Speed Precip Events Conditions
12:53 AM 21.0 °F 11.4 °F 16.0 °F 81% 29.98 in 9.0 mi SSW 8.1 mph - N/A   Overcast
1:53 AM 21.0 °F 13.4 °F 16.0 °F 81% 29.99 in 8.0 mi SSW 5.8 mph - N/A   Overcast
2:53 AM 21.0 °F 11.4 °F 16.0 °F 81% 30.00 in 8.0 mi SSW 8.1 mph - N/A   Overcast
3:53 AM 21.2 °F 12.6 °F 15.8 °F 80% 29.97 in 9.0 mi SW 6.9 mph - N/A   Overcast
4:53 AM 19.9 °F 14.9 °F 16.0 °F 85% 30.00 in 9.0 mi South 3.5 mph - N/A   Overcast
5:53 AM 19.9 °F 12.1 °F 16.0 °F 85% 30.01 in 8.0 mi SSW 5.8 mph - N/A   Overcast
6:53 AM 19.4 °F 11.5 °F 15.8 °F 86% 29.98 in 7.0 mi SSW 5.8 mph - N/A   Overcast
7:53 AM 19.9 °F 11.1 °F 18.0 °F 92% 30.02 in 4.0 mi SSW 6.9 mph - 0.00 in Snow Light Snow
8:03 AM 19.4 °F 12.8 °F 17.6 °F 93% 29.99 in 2.0 mi SSW 4.6 mph - 0.00 in Snow Light Snow
8:32 AM 19.4 °F 12.8 °F 17.6 °F 93% 29.99 in 4.0 mi SSW 4.6 mph - 0.00 in   Overcast
8:53 AM 19.9 °F 14.9 °F 18.0 °F 92% 30.04 in 4.0 mi SSW 3.5 mph - 0.00 in Snow Light Snow
9:45 AM 21.2 °F 14.9 °F 17.6 °F 86% 30.02 in 2.5 mi SW 4.6 mph - 0.00 in Snow Light Snow
9:53 AM 21.0 °F 14.6 °F 18.0 °F 88% 30.05 in 2.5 mi SW 4.6 mph - 0.00 in Snow Light Snow
10:53 AM 21.2 °F 12.6 °F 17.6 °F 86% 30.02 in 2.5 mi SW 6.9 mph - N/A Snow Light Snow
11:16 AM 21.2 °F 13.6 °F 19.4 °F 93% 30.02 in 3.0 mi SW 5.8 mph - 0.00 in Snow Light Snow
11:53 AM 23.0 °F 14.7 °F 19.0 °F 85% 30.05 in 4.0 mi SW 6.9 mph - 0.00 in Snow Light Snow
12:29 PM 23.0 °F 17.0 °F 19.4 °F 86% 30.01 in 5.0 mi WSW 4.6 mph - 0.00 in   Scattered Clouds
12:53 PM 23.0 °F 15.8 °F 19.9 °F 88% 30.04 in 5.0 mi WSW 5.8 mph - 0.00 in   Scattered Clouds
1:16 PM 24.8 °F 17.9 °F 19.4 °F 80% 30.01 in 6.0 mi WSW 5.8 mph - N/A   Mostly Cloudy
1:53 PM 24.1 °F 17.0 °F 19.9 °F 84% 30.04 in 6.0 mi SW 5.8 mph - N/A   Mostly Cloudy
2:53 PM 24.1 °F 16.0 °F 19.9 °F 84% 30.05 in 6.0 mi SW 6.9 mph - N/A   Mostly Cloudy
3:17 PM 24.8 °F 16.1 °F 19.4 °F 80% 30.02 in 6.0 mi SW 8.1 mph - N/A   Scattered Clouds
3:27 PM 24.8 °F 17.9 °F 19.4 °F 80% 30.02 in 6.0 mi SSW 5.8 mph - N/A   Mostly Cloudy
3:53 PM 24.1 °F 16.0 °F 19.9 °F 84% 30.06 in 6.0 mi SW 6.9 mph - N/A   Overcast
4:53 PM 24.1 °F 16.0 °F 19.9 °F 84% 30.07 in 6.0 mi SW 6.9 mph - N/A   Overcast
5:53 PM 24.1 °F 18.2 °F 19.9 °F 84% 30.07 in 6.0 mi SW 4.6 mph - N/A   Overcast
6:53 PM 24.1 °F 17.0 °F 19.9 °F 84% 30.08 in 6.0 mi SW 5.8 mph - N/A   Overcast
7:53 PM 24.1 °F - 19.9 °F 84% 30.08 in 5.0 mi Calm Calm - N/A   Mostly Cloudy
8:53 PM 24.1 °F 19.7 °F 21.0 °F 88% 30.08 in 5.0 mi WSW 3.5 mph - N/A   Mostly Cloudy
9:53 PM 24.1 °F 18.2 °F 21.0 °F 88% 30.09 in 5.0 mi SW 4.6 mph - N/A   Overcast
10:53 PM 24.1 °F 18.2 °F 21.0 °F 88% 30.09 in 4.0 mi WSW 4.6 mph - N/A   Overcast
11:53 PM 24.1 °F 17.0 °F 21.0 °F 88% 30.10 in 5.0 mi West 5.8 mph - N/A   Partly Cloudy